RYR90RC LGKR-LIME

Flight info

Callsign RYR90RC
Flight time 1h 37m
Altitude 38000
Route OLGAT DCT OKIMO DCT ENOXA DCT GARGA DCT ANC DCT BOA DCT OGPUD DCT BETMU DCT OSBUL
Aircraft B738/M-SDE3FGILRWY/SB1

Departure

Time 2026-05-06 06:50
Airport Corfu Ioannis Kapodistrias International Airport (LGKR)

Arrival

Time 2026-05-06 08:28
Airport Il Caravaggio International Airport (LIME)
Time Latitude Longitude Altitude Speed Heading
2026-05-06 06:18 39.60706 19.91354 18 ft 0 kts 79°
2026-05-06 06:42 39.60704 19.91339 17 ft 4 kts 79°
2026-05-06 06:43 39.60699 19.91305 18 ft 4 kts 79°
2026-05-06 06:43 39.60694 19.91270 21 ft 4 kts 79°
2026-05-06 06:43 39.60690 19.91243 19 ft 4 kts 96°
2026-05-06 06:43 39.60701 19.91219 19 ft 4 kts 158°
2026-05-06 06:44 39.60725 19.91210 17 ft 4 kts 169°
2026-05-06 06:44 39.60738 19.91207 18 ft 1 kts 169°
2026-05-06 06:46 39.60707 19.91215 18 ft 8 kts 168°
2026-05-06 06:46 39.60650 19.91230 17 ft 8 kts 171°
2026-05-06 06:46 39.60599 19.91212 17 ft 8 kts 211°
2026-05-06 06:47 39.60553 19.91176 18 ft 8 kts 207°
2026-05-06 06:47 39.60504 19.91151 18 ft 8 kts 194°
2026-05-06 06:47 39.60431 19.91152 18 ft 15 kts 171°
2026-05-06 06:47 39.60298 19.91188 19 ft 23 kts 168°
2026-05-06 06:48 39.60118 19.91236 20 ft 30 kts 168°
2026-05-06 06:48 39.59890 19.91296 21 ft 36 kts 169°
2026-05-06 06:48 39.59621 19.91362 18 ft 42 kts 169°
2026-05-06 06:48 39.59327 19.91436 16 ft 35 kts 169°
2026-05-06 06:49 39.59181 19.91441 16 ft 14 kts 182°
2026-05-06 06:49 39.59187 19.91470 16 ft 3 kts 356°
2026-05-06 06:49 39.59199 19.91468 18 ft 10 kts 352°
2026-05-06 06:49 39.59532 19.91382 18 ft 87 kts 348°
2026-05-06 06:50 39.60358 19.91165 19 ft 153 kts 349°
2026-05-06 06:50 39.61518 19.90866 436 ft 172 kts 350°
2026-05-06 06:50 39.62683 19.90559 1334 ft 173 kts 349°
2026-05-06 06:50 39.63910 19.90245 2003 ft 185 kts 348°
2026-05-06 06:51 39.65118 19.89482 2535 ft 207 kts 316°
2026-05-06 06:51 39.65830 19.87855 3100 ft 215 kts 276°
2026-05-06 06:51 39.65814 19.85880 3582 ft 222 kts 264°
2026-05-06 06:51 39.65769 19.83833 4190 ft 233 kts 268°
2026-05-06 06:52 39.65780 19.81673 4790 ft 246 kts 269°
2026-05-06 06:52 39.65926 19.79442 5605 ft 251 kts 285°
2026-05-06 06:52 39.66833 19.77474 6371 ft 262 kts 311°
2026-05-06 06:52 39.68144 19.75900 7352 ft 257 kts 316°
2026-05-06 06:53 39.69475 19.74281 7960 ft 272 kts 316°
2026-05-06 06:53 39.70856 19.72528 8610 ft 280 kts 313°
2026-05-06 06:53 39.72207 19.70714 9545 ft 279 kts 312°
2026-05-06 06:53 39.73551 19.68885 10360 ft 281 kts 312°
2026-05-06 06:54 39.74947 19.66983 10637 ft 303 kts 312°
2026-05-06 06:54 39.76460 19.64926 10884 ft 324 kts 312°
2026-05-06 06:54 39.78041 19.62781 11458 ft 332 kts 313°
2026-05-06 06:54 39.79638 19.60620 12200 ft 334 kts 313°
2026-05-06 06:55 39.81255 19.58433 12990 ft 337 kts 313°
2026-05-06 06:55 39.82864 19.56254 13771 ft 340 kts 313°
2026-05-06 06:55 39.84513 19.54019 14491 ft 343 kts 313°
2026-05-06 06:55 39.86153 19.51802 15247 ft 345 kts 313°
2026-05-06 06:56 39.87828 19.49554 15996 ft 347 kts 313°
2026-05-06 06:56 39.89485 19.47336 16702 ft 350 kts 313°
2026-05-06 06:56 39.91198 19.45040 17350 ft 356 kts 313°
2026-05-06 06:56 39.92872 19.42796 18134 ft 357 kts 313°
2026-05-06 06:57 39.94605 19.40470 18794 ft 360 kts 313°
2026-05-06 06:57 39.96350 19.38123 19406 ft 363 kts 313°
2026-05-06 06:57 39.98115 19.35748 20047 ft 365 kts 313°
2026-05-06 06:57 39.99884 19.33365 20676 ft 367 kts 313°
2026-05-06 06:58 40.01662 19.30968 21302 ft 369 kts 313°
2026-05-06 06:58 40.02849 19.29368 21701 ft 371 kts 313°
2026-05-06 06:58 40.04646 19.26940 22292 ft 374 kts 313°
2026-05-06 06:58 40.07053 19.23688 23067 ft 377 kts 313°
2026-05-06 06:59 40.08789 19.21340 23613 ft 380 kts 313°
2026-05-06 06:59 40.10629 19.18848 24083 ft 383 kts 313°
2026-05-06 06:59 40.12480 19.16340 24527 ft 386 kts 313°
2026-05-06 06:59 40.14350 19.13804 24967 ft 389 kts 313°
2026-05-06 07:00 40.16234 19.11247 25372 ft 393 kts 312°
2026-05-06 07:00 40.17524 19.09494 25565 ft 398 kts 312°
2026-05-06 07:00 40.19452 19.06873 26026 ft 400 kts 312°
2026-05-06 07:00 40.21384 19.04247 26491 ft 402 kts 312°
2026-05-06 07:01 40.23329 19.01599 26908 ft 405 kts 312°
2026-05-06 07:01 40.25286 18.98933 27276 ft 408 kts 312°
2026-05-06 07:01 40.27266 18.96236 27668 ft 411 kts 312°
2026-05-06 07:01 40.29253 18.93531 28070 ft 414 kts 312°
2026-05-06 07:02 40.31254 18.90804 28462 ft 417 kts 312°
2026-05-06 07:02 40.33267 18.88058 28840 ft 419 kts 312°
2026-05-06 07:02 40.35267 18.85326 29198 ft 422 kts 312°
2026-05-06 07:02 40.37330 18.82506 29554 ft 425 kts 312°
2026-05-06 07:03 40.39385 18.79695 29909 ft 427 kts 311°
2026-05-06 07:03 40.41444 18.76874 30219 ft 430 kts 311°
2026-05-06 07:03 40.43524 18.74022 30446 ft 434 kts 311°
2026-05-06 07:03 40.45590 18.71186 30779 ft 435 kts 311°
2026-05-06 07:04 40.47703 18.68285 31220 ft 433 kts 311°
2026-05-06 07:04 40.49780 18.65430 31704 ft 431 kts 311°
2026-05-06 07:04 40.51845 18.62588 32139 ft 429 kts 311°
2026-05-06 07:04 40.53907 18.59748 32505 ft 429 kts 311°
2026-05-06 07:05 40.55968 18.56905 32863 ft 429 kts 311°
2026-05-06 07:05 40.58021 18.54072 33256 ft 428 kts 311°
2026-05-06 07:05 40.60071 18.51239 33649 ft 427 kts 311°
2026-05-06 07:05 40.62088 18.48450 34025 ft 426 kts 311°
2026-05-06 07:06 40.64129 18.45625 34348 ft 426 kts 311°
2026-05-06 07:06 40.66165 18.42803 34685 ft 424 kts 311°
2026-05-06 07:06 40.68193 18.39991 34972 ft 424 kts 310°
2026-05-06 07:06 40.70249 18.37135 35261 ft 423 kts 310°
2026-05-06 07:07 40.72246 18.34361 35627 ft 421 kts 310°
2026-05-06 07:07 40.74250 18.31575 36047 ft 417 kts 310°
2026-05-06 07:07 40.76268 18.28766 36410 ft 415 kts 310°
2026-05-06 07:07 40.78215 18.26053 36696 ft 415 kts 310°
2026-05-06 07:08 40.80225 18.23248 36972 ft 414 kts 310°
2026-05-06 07:08 40.82173 18.20527 37278 ft 413 kts 310°
2026-05-06 07:08 40.84141 18.17778 37565 ft 411 kts 310°
2026-05-06 07:08 40.86098 18.15040 37846 ft 410 kts 310°
2026-05-06 07:09 40.88050 18.12307 38079 ft 410 kts 310°
2026-05-06 07:09 40.91998 18.06771 38068 ft 415 kts 310°
2026-05-06 07:10 40.95966 18.01191 38049 ft 410 kts 310°
2026-05-06 07:10 40.99816 17.95749 38070 ft 407 kts 310°
2026-05-06 07:11 41.03501 17.90526 38059 ft 405 kts 310°
2026-05-06 07:11 41.07371 17.85035 38052 ft 404 kts 310°
2026-05-06 07:12 41.11206 17.79584 38053 ft 404 kts 310°
2026-05-06 07:12 41.15043 17.74119 38054 ft 405 kts 309°
2026-05-06 07:13 41.18882 17.68643 38049 ft 407 kts 309°
2026-05-06 07:13 41.22745 17.63139 38050 ft 409 kts 310°
2026-05-06 07:14 41.26644 17.57603 38053 ft 411 kts 309°
2026-05-06 07:14 41.30552 17.52043 38048 ft 413 kts 309°
2026-05-06 07:15 41.34478 17.46444 38039 ft 414 kts 309°
2026-05-06 07:15 41.38406 17.40830 38039 ft 416 kts 309°
2026-05-06 07:16 41.42323 17.35222 38037 ft 417 kts 309°
2026-05-06 07:16 41.46277 17.29548 38031 ft 417 kts 309°
2026-05-06 07:17 41.50225 17.23872 38029 ft 417 kts 309°
2026-05-06 07:17 41.54167 17.18194 38031 ft 417 kts 309°
2026-05-06 07:18 41.58100 17.12518 38028 ft 416 kts 309°
2026-05-06 07:18 41.62008 17.06868 38032 ft 415 kts 309°
2026-05-06 07:19 41.65918 17.01202 38012 ft 415 kts 309°
2026-05-06 07:19 41.69797 16.95572 38023 ft 415 kts 309°
2026-05-06 07:20 41.73727 16.89857 38020 ft 414 kts 309°
2026-05-06 07:20 41.77617 16.84188 38036 ft 414 kts 309°
2026-05-06 07:21 41.81484 16.78541 38022 ft 415 kts 309°
2026-05-06 07:21 41.85403 16.72809 38019 ft 414 kts 309°
2026-05-06 07:22 41.89272 16.67137 38001 ft 415 kts 308°
2026-05-06 07:22 41.93159 16.61429 38015 ft 415 kts 308°
2026-05-06 07:23 41.97040 16.55719 38013 ft 416 kts 308°
2026-05-06 07:23 42.00939 16.49971 38015 ft 417 kts 308°
2026-05-06 07:24 42.04821 16.44236 38021 ft 418 kts 308°
2026-05-06 07:24 42.08731 16.38448 38011 ft 419 kts 308°
2026-05-06 07:25 42.12624 16.32675 38004 ft 419 kts 308°
2026-05-06 07:25 42.16537 16.26860 38004 ft 420 kts 308°
2026-05-06 07:26 42.20451 16.21032 38000 ft 420 kts 308°
2026-05-06 07:26 42.24363 16.15196 37994 ft 420 kts 308°
2026-05-06 07:27 42.28113 16.09245 37998 ft 417 kts 302°
2026-05-06 07:27 42.31439 16.02843 38003 ft 416 kts 301°
2026-05-06 07:28 42.34694 15.96422 38003 ft 416 kts 300°
2026-05-06 07:28 42.39621 15.86806 37977 ft 417 kts 301°
2026-05-06 07:29 42.42922 15.80402 37996 ft 416 kts 301°
2026-05-06 07:29 42.46154 15.74127 37994 ft 416 kts 301°
2026-05-06 07:30 42.49449 15.67715 37979 ft 416 kts 301°
2026-05-06 07:30 42.52725 15.61328 37985 ft 416 kts 300°
2026-05-06 07:31 42.55996 15.54936 37990 ft 416 kts 300°
2026-05-06 07:31 42.59245 15.48572 37982 ft 416 kts 300°
2026-05-06 07:32 42.62524 15.42136 37981 ft 416 kts 300°
2026-05-06 07:32 42.65773 15.35746 37978 ft 417 kts 300°
2026-05-06 07:33 42.69044 15.29298 37978 ft 417 kts 300°
2026-05-06 07:33 42.72221 15.23023 37981 ft 417 kts 300°
2026-05-06 07:34 42.75495 15.16541 37975 ft 417 kts 300°
2026-05-06 07:34 42.78772 15.10041 37976 ft 418 kts 300°
2026-05-06 07:35 42.81952 15.03719 37967 ft 418 kts 300°
2026-05-06 07:35 42.85224 14.97200 37979 ft 418 kts 300°
2026-05-06 07:36 42.88487 14.90685 37983 ft 419 kts 299°
2026-05-06 07:36 42.91771 14.84112 37970 ft 419 kts 299°
2026-05-06 07:37 42.95034 14.77569 37968 ft 419 kts 299°
2026-05-06 07:37 42.98296 14.71013 37965 ft 419 kts 299°
2026-05-06 07:38 43.01562 14.64434 37966 ft 419 kts 299°
2026-05-06 07:38 43.04820 14.57856 37970 ft 419 kts 299°
2026-05-06 07:39 43.08067 14.51286 37970 ft 419 kts 299°
2026-05-06 07:39 43.11323 14.44684 37971 ft 419 kts 299°
2026-05-06 07:40 43.14022 14.39198 37966 ft 419 kts 299°
2026-05-06 07:40 43.17791 14.31524 37962 ft 418 kts 299°
2026-05-06 07:41 43.20500 14.25993 37962 ft 418 kts 299°
2026-05-06 07:41 43.23729 14.19389 37975 ft 418 kts 298°
2026-05-06 07:42 43.26955 14.12776 37965 ft 418 kts 298°
2026-05-06 07:42 43.30195 14.06119 37959 ft 418 kts 298°
2026-05-06 07:43 43.33423 13.99472 37961 ft 418 kts 298°
2026-05-06 07:43 43.36649 13.92813 37962 ft 419 kts 298°
2026-05-06 07:44 43.39874 13.86143 37964 ft 419 kts 298°
2026-05-06 07:44 43.43077 13.79502 37963 ft 419 kts 298°
2026-05-06 07:45 43.46296 13.72814 37956 ft 419 kts 298°
2026-05-06 07:45 43.49531 13.66076 37974 ft 420 kts 298°
2026-05-06 07:46 43.52726 13.59406 37953 ft 419 kts 298°
2026-05-06 07:46 43.55927 13.52710 37951 ft 418 kts 298°
2026-05-06 07:47 43.59110 13.46026 37961 ft 415 kts 297°
2026-05-06 07:47 43.62172 13.39311 37959 ft 412 kts 296°
2026-05-06 07:48 43.65172 13.32612 37977 ft 409 kts 296°
2026-05-06 07:48 43.68158 13.25946 37954 ft 406 kts 296°
2026-05-06 07:49 43.71123 13.19333 37956 ft 404 kts 296°
2026-05-06 07:49 43.74075 13.12742 37978 ft 403 kts 296°
2026-05-06 07:50 43.77020 13.06152 37949 ft 403 kts 295°
2026-05-06 07:50 43.79966 12.99546 37946 ft 404 kts 295°
2026-05-06 07:51 43.82914 12.92918 37935 ft 405 kts 295°
2026-05-06 07:51 43.85872 12.86256 37945 ft 407 kts 295°
2026-05-06 07:52 43.88848 12.79536 37947 ft 411 kts 295°
2026-05-06 07:52 43.91821 12.72808 37946 ft 412 kts 295°
2026-05-06 07:53 43.94815 12.66023 37934 ft 412 kts 295°
2026-05-06 07:53 43.97792 12.59258 37933 ft 410 kts 295°
2026-05-06 07:54 44.00758 12.52502 37940 ft 409 kts 295°
2026-05-06 07:54 44.03703 12.45774 37936 ft 407 kts 295°
2026-05-06 07:55 44.06638 12.39056 37958 ft 406 kts 294°
2026-05-06 07:55 44.09566 12.32334 37940 ft 406 kts 294°
2026-05-06 07:56 44.12484 12.25624 37948 ft 405 kts 294°
2026-05-06 07:56 44.15400 12.18900 37940 ft 406 kts 294°
2026-05-06 07:57 44.18315 12.12164 37953 ft 407 kts 294°
2026-05-06 07:57 44.21234 12.05398 37924 ft 410 kts 294°
2026-05-06 07:58 44.24169 11.98585 37935 ft 410 kts 294°
2026-05-06 07:58 44.27098 11.91770 37944 ft 411 kts 294°
2026-05-06 07:59 44.30036 11.84917 37930 ft 412 kts 294°
2026-05-06 07:59 44.32973 11.78048 37928 ft 412 kts 294°
2026-05-06 08:00 44.35889 11.71212 37930 ft 413 kts 294°
2026-05-06 08:00 44.38827 11.64310 37919 ft 413 kts 294°
2026-05-06 08:01 44.41756 11.57410 37920 ft 415 kts 294°
2026-05-06 08:01 44.44704 11.50445 37523 ft 420 kts 294°
2026-05-06 08:02 44.46187 11.46938 37086 ft 418 kts 294°
2026-05-06 08:02 44.47663 11.43448 36601 ft 415 kts 293°
2026-05-06 08:02 44.49132 11.39962 36008 ft 416 kts 293°
2026-05-06 08:02 44.50601 11.36478 35482 ft 415 kts 293°
2026-05-06 08:03 44.52064 11.33000 34914 ft 415 kts 292°
2026-05-06 08:03 44.53520 11.29508 34324 ft 414 kts 291°
2026-05-06 08:03 44.54749 11.25889 33670 ft 408 kts 284°
2026-05-06 08:03 44.55803 11.22200 33030 ft 408 kts 284°
2026-05-06 08:04 44.56833 11.18491 32371 ft 408 kts 284°
2026-05-06 08:04 44.57872 11.14783 31717 ft 408 kts 284°
2026-05-06 08:04 44.58922 11.11093 31200 ft 406 kts 284°
2026-05-06 08:04 44.59975 11.07440 30726 ft 402 kts 285°
2026-05-06 08:05 44.61020 11.03822 30267 ft 398 kts 285°
2026-05-06 08:05 44.62057 11.00234 29802 ft 394 kts 285°
2026-05-06 08:05 44.63089 10.96693 29338 ft 389 kts 285°
2026-05-06 08:05 44.64109 10.93199 28869 ft 385 kts 285°
2026-05-06 08:06 44.65117 10.89741 28409 ft 380 kts 285°
2026-05-06 08:06 44.66098 10.86363 27954 ft 377 kts 285°
2026-05-06 08:06 44.67081 10.82972 27491 ft 374 kts 285°
2026-05-06 08:06 44.68050 10.79608 27073 ft 370 kts 284°
2026-05-06 08:07 44.69004 10.76263 26615 ft 367 kts 284°
2026-05-06 08:07 44.69949 10.72935 26169 ft 366 kts 284°
2026-05-06 08:07 44.70886 10.69627 25732 ft 364 kts 284°
2026-05-06 08:07 44.71822 10.66318 25303 ft 366 kts 284°
2026-05-06 08:08 44.72772 10.62942 24902 ft 377 kts 284°
2026-05-06 08:08 44.73744 10.59490 24404 ft 380 kts 285°
2026-05-06 08:08 44.74719 10.56046 23950 ft 378 kts 285°
2026-05-06 08:08 44.75685 10.52630 23484 ft 375 kts 285°
2026-05-06 08:09 44.76641 10.49245 22967 ft 373 kts 285°
2026-05-06 08:09 44.77593 10.45867 22494 ft 370 kts 285°
2026-05-06 08:09 44.78534 10.42519 22052 ft 366 kts 285°
2026-05-06 08:09 44.79465 10.39201 21606 ft 363 kts 285°
2026-05-06 08:10 44.80385 10.35913 21169 ft 361 kts 285°
2026-05-06 08:10 44.81299 10.32646 20717 ft 360 kts 285°
2026-05-06 08:10 44.82212 10.29380 20300 ft 358 kts 285°
2026-05-06 08:10 44.83458 10.26307 19841 ft 370 kts 306°
2026-05-06 08:11 44.85404 10.23897 19471 ft 374 kts 316°
2026-05-06 08:11 44.87498 10.21722 19047 ft 374 kts 318°
2026-05-06 08:11 44.89615 10.19597 18624 ft 373 kts 319°
2026-05-06 08:11 44.91730 10.17475 18192 ft 372 kts 319°
2026-05-06 08:12 44.93686 10.15494 17750 ft 371 kts 319°
2026-05-06 08:12 44.95584 10.13550 17334 ft 370 kts 318°
2026-05-06 08:12 44.97656 10.11416 16900 ft 367 kts 318°
2026-05-06 08:12 44.99706 10.09294 16481 ft 365 kts 318°
2026-05-06 08:13 45.01716 10.07206 16083 ft 363 kts 318°
2026-05-06 08:13 45.03767 10.05071 15666 ft 362 kts 318°
2026-05-06 08:13 45.05687 10.03070 15257 ft 361 kts 318°
2026-05-06 08:13 45.07621 10.01053 14868 ft 359 kts 318°
2026-05-06 08:14 45.09530 9.99062 14487 ft 358 kts 318°
2026-05-06 08:14 45.11290 9.97224 14112 ft 357 kts 318°
2026-05-06 08:14 45.13285 9.95139 13700 ft 355 kts 318°
2026-05-06 08:14 45.15279 9.93176 13196 ft 358 kts 323°
2026-05-06 08:15 45.17313 9.91482 12777 ft 358 kts 327°
2026-05-06 08:15 45.19543 9.89908 12358 ft 357 kts 331°
2026-05-06 08:15 45.21830 9.88533 11956 ft 356 kts 334°
2026-05-06 08:15 45.24171 9.87377 11530 ft 358 kts 339°
2026-05-06 08:16 45.26359 9.86410 11152 ft 356 kts 339°
2026-05-06 08:16 45.28722 9.85386 10735 ft 354 kts 339°
2026-05-06 08:16 45.31015 9.84391 10467 ft 348 kts 339°
2026-05-06 08:16 45.33279 9.83403 10349 ft 338 kts 339°
2026-05-06 08:17 45.35004 9.82646 10242 ft 331 kts 339°
2026-05-06 08:17 45.36684 9.81904 10135 ft 324 kts 339°
2026-05-06 08:17 45.38808 9.80961 10015 ft 315 kts 337°
2026-05-06 08:17 45.40656 9.79508 9946 ft 294 kts 315°
2026-05-06 08:18 45.42183 9.77640 9575 ft 295 kts 314°
2026-05-06 08:18 45.43723 9.75724 9286 ft 293 kts 314°
2026-05-06 08:18 45.45259 9.73825 8992 ft 292 kts 315°
2026-05-06 08:18 45.46798 9.71940 8698 ft 291 kts 315°
2026-05-06 08:19 45.48226 9.70205 8418 ft 289 kts 315°
2026-05-06 08:19 45.49694 9.68429 8166 ft 287 kts 315°
2026-05-06 08:19 45.51177 9.66638 7898 ft 286 kts 316°
2026-05-06 08:19 45.52628 9.64889 7818 ft 277 kts 316°
2026-05-06 08:20 45.53973 9.63271 7719 ft 270 kts 315°
2026-05-06 08:20 45.55388 9.61566 7606 ft 262 kts 315°
2026-05-06 08:20 45.56765 9.59906 7488 ft 256 kts 316°
2026-05-06 08:20 45.58108 9.58283 7355 ft 250 kts 317°
2026-05-06 08:21 45.59420 9.56700 7231 ft 244 kts 317°
2026-05-06 08:21 45.60693 9.55121 7002 ft 242 kts 310°
2026-05-06 08:21 45.61463 9.53066 6771 ft 233 kts 279°
2026-05-06 08:21 45.61844 9.50856 6568 ft 234 kts 280°
2026-05-06 08:22 45.62252 9.48605 6322 ft 235 kts 280°
2026-05-06 08:22 45.62664 9.46354 6086 ft 234 kts 281°
2026-05-06 08:22 45.63120 9.44122 5837 ft 236 kts 291°
2026-05-06 08:22 45.64205 9.42379 5605 ft 237 kts 332°
2026-05-06 08:23 45.65777 9.41846 5377 ft 235 kts
2026-05-06 08:23 45.67396 9.42253 5141 ft 236 kts 17°
2026-05-06 08:23 45.68964 9.42862 4895 ft 236 kts 23°
2026-05-06 08:23 45.70262 9.44118 4632 ft 220 kts 60°
2026-05-06 08:24 45.70665 9.46089 4283 ft 202 kts 93°
2026-05-06 08:24 45.70702 9.48053 4050 ft 195 kts 93°
2026-05-06 08:24 45.70554 9.49944 3827 ft 188 kts 104°
2026-05-06 08:24 45.70282 9.51745 3620 ft 182 kts 105°
2026-05-06 08:25 45.69985 9.53468 3419 ft 177 kts 106°
2026-05-06 08:25 45.69676 9.55162 3151 ft 175 kts 106°
2026-05-06 08:25 45.69364 9.56854 2891 ft 179 kts 104°
2026-05-06 08:25 45.69028 9.58620 2585 ft 188 kts 106°
2026-05-06 08:26 45.68696 9.60396 2258 ft 178 kts 105°
2026-05-06 08:26 45.68395 9.62030 2009 ft 164 kts 105°
2026-05-06 08:26 45.68115 9.63531 1781 ft 151 kts 105°
2026-05-06 08:26 45.67853 9.64931 1561 ft 142 kts 105°
2026-05-06 08:27 45.67605 9.66326 1265 ft 148 kts 103°
2026-05-06 08:27 45.67344 9.67742 1050 ft 146 kts 107°
2026-05-06 08:27 45.67078 9.69131 815 ft 143 kts 103°
2026-05-06 08:27 45.66849 9.70369 786 ft 104 kts 105°
2026-05-06 08:28 45.66718 9.71079 786 ft 52 kts 104°
2026-05-06 08:28 45.66627 9.71570 786 ft 47 kts 105°
2026-05-06 08:28 45.66561 9.71882 786 ft 26 kts 126°
2026-05-06 08:28 45.66472 9.71811 786 ft 18 kts 254°
2026-05-06 08:29 45.66440 9.71648 786 ft 13 kts 258°
2026-05-06 08:29 45.66442 9.71524 786 ft 15 kts 282°
2026-05-06 08:29 45.66477 9.71330 786 ft 24 kts 285°
2026-05-06 08:29 45.66532 9.71086 786 ft 27 kts 290°
2026-05-06 08:30 45.66567 9.70928 786 ft 22 kts 286°
2026-05-06 08:30 45.66600 9.70766 786 ft 11 kts 281°
2026-05-06 08:30 45.66564 9.70715 786 ft 6 kts 195°
2026-05-06 08:30 45.66529 9.70702 786 ft 4 kts 195°
2026-05-06 08:31 45.66526 9.70701 786 ft 0 kts 195°